Location: Bonnesvalyn
(49.1218°N, 3.3177°E)
Time: 06:58:28
(UTC+00:00)

IGS 5A - Pass Details

Date: 09 February 2023
Orbit: 578 x 583 km, 97.5° (Epoch: 10 March)

Event Time Altitude Azimuth Distance (km) Brightness Sun altitude
Exits shadow 18:51:43 27° 148° (SSE) 1,135 4.6 -19.2°
Maximum altitude 18:53:51 65° 74° (ENE) 644 3.3 -19.6°
Drops below altitude 10° 18:57:57 10° 352° (N) 1,908 6.2 -20.3°
Sets 19:00:07 0° 350° (N) 2,811 7.1 -20.6°
